| time (UTC) | temp F | wind direction | speed MPH | gust MPH | rain 1hr in | rain 24hr in | rain mn in | humidity % | barometer mb |
| 20260505230603 | 50 | 31 | 2.0 | 4.0 | 0.00 | 0.25 | 0.04 | 47 | 1008.7 |
| 20260505230403 | 50 | 34 | 2.0 | 4.0 | 0.00 | 0.25 | 0.04 | 47 | 1008.6 |
| 20260505230203 | 50 | 35 | 2.0 | 5.0 | 0.00 | 0.25 | 0.04 | 47 | 1008.7 |
| 20260505230003 | 50 | 37 | 2.0 | 5.0 | 0.00 | 0.25 | 0.04 | 46 | 1008.7 |
| 20260505225803 | 50 | 43 | 2.0 | 5.0 | 0.00 | 0.25 | 0.04 | 46 | 1008.8 |
| 20260505225603 | 50 | 41 | 2.0 | 5.0 | 0.00 | 0.25 | 0.04 | 44 | 1008.8 |
| 20260505225403 | 50 | 39 | 2.0 | 5.0 | 0.00 | 0.25 | 0.04 | 43 | 1008.7 |
| 20260505225224 | 50 | 40 | 2.0 | 5.0 | 0.00 | 0.25 | 0.04 | 47 | 1008.6 |
| 20260505225003 | 50 | 44 | 2.0 | 5.0 | 0.00 | 0.25 | 0.04 | 44 | 1008.6 |
| 20260505224803 | 50 | 39 | 2.0 | 5.0 | 0.00 | 0.25 | 0.04 | 46 | 1008.7 |
| 20260505224603 | 50 | 36 | 2.0 | 5.0 | 0.00 | 0.25 | 0.04 | 47 | 1008.6 |
| 20260505224403 | 50 | 35 | 2.0 | 5.0 | 0.00 | 0.25 | 0.04 | 47 | 1008.7 |
| 20260505224203 | 50 | 32 | 3.0 | 5.0 | 0.00 | 0.25 | 0.04 | 45 | 1008.6 |
| 20260505224003 | 50 | 28 | 3.0 | 5.0 | 0.00 | 0.25 | 0.04 | 42 | 1008.6 |
| 20260505223803 | 50 | 25 | 3.0 | 6.0 | 0.00 | 0.25 | 0.04 | 44 | 1008.6 |
| 20260505223603 | 50 | 27 | 3.0 | 6.0 | 0.00 | 0.25 | 0.04 | 43 | 1008.7 |
| 20260505223403 | 50 | 22 | 3.0 | 9.0 | 0.00 | 0.25 | 0.04 | 44 | 1008.7 |
| 20260505223203 | 51 | 25 | 3.0 | 9.0 | 0.00 | 0.25 | 0.04 | 43 | 1008.7 |
| 20260505223003 | 51 | 32 | 3.0 | 9.0 | 0.00 | 0.25 | 0.04 | 41 | 1008.7 |
| 20260505222803 | 51 | 33 | 3.0 | 9.0 | 0.00 | 0.25 | 0.04 | 42 | 1008.7 |
| 20260505222603 | 51 | 41 | 2.0 | 9.0 | 0.00 | 0.25 | 0.04 | 41 | 1008.6 |
| 20260505222424 | 51 | 47 | 3.0 | 7.0 | 0.00 | 0.25 | 0.04 | 44 | 1008.6 |
| 20260505222203 | 51 | 49 | 3.0 | 7.0 | 0.00 | 0.25 | 0.04 | 41 | 1008.6 |
| 20260505222003 | 51 | 53 | 4.0 | 7.0 | 0.00 | 0.25 | 0.04 | 42 | 1008.6 |
| 20260505221803 | 51 | 56 | 4.0 | 7.0 | 0.00 | 0.25 | 0.04 | 41 | 1008.6 |
| 20260505221603 | 51 | 66 | 4.0 | 7.0 | 0.00 | 0.25 | 0.04 | 39 | 1008.6 |
| 20260505221403 | 51 | 75 | 4.0 | 8.0 | 0.00 | 0.28 | 0.04 | 40 | 1008.6 |
| 20260505221203 | 51 | 82 | 4.0 | 8.0 | 0.00 | 0.33 | 0.04 | 40 | 1008.6 |
| 20260505221003 | 51 | 82 | 3.0 | 8.0 | 0.00 | 0.37 | 0.04 | 40 | 1008.6 |
| 20260505220803 | 51 | 82 | 3.0 | 8.0 | 0.00 | 0.37 | 0.04 | 39 | 1008.6 |
| 20260505220624 | 51 | 68 | 3.0 | 8.0 | 0.00 | 0.37 | 0.04 | 41 | 1008.5 |
| 20260505220403 | 51 | 52 | 3.0 | 7.0 | 0.00 | 0.37 | 0.04 | 42 | 1008.6 |
| 20260505220203 | 51 | 37 | 3.0 | 7.0 | 0.00 | 0.37 | 0.04 | 43 | 1008.6 |
| 20260505220003 | 51 | 23 | 3.0 | 7.0 | 0.00 | 0.37 | 0.04 | 44 | 1008.6 |
| 20260505215824 | 51 | 19 | 3.0 | 7.0 | 0.00 | 0.37 | 0.04 | 45 | 1008.6 |
| 20260505215624 | 51 | 16 | 3.0 | 7.0 | 0.00 | 0.37 | 0.04 | 41 | 1008.6 |
| 20260505215403 | 51 | 17 | 3.0 | 7.0 | 0.00 | 0.37 | 0.04 | 42 | 1008.6 |
| 20260505215224 | 51 | 21 | 3.0 | 7.0 | 0.00 | 0.37 | 0.04 | 43 | 1008.6 |
| 20260505215003 | 51 | 24 | 3.0 | 7.0 | 0.00 | 0.37 | 0.04 | 38 | 1008.6 |
| 20260505214803 | 51 | 23 | 3.0 | 7.0 | 0.00 | 0.37 | 0.04 | 43 | 1008.6 |
| 20260505214603 | 51 | 32 | 3.0 | 7.0 | 0.00 | 0.37 | 0.04 | 39 | 1008.7 |
| 20260505214403 | 51 | 37 | 3.0 | 7.0 | 0.00 | 0.37 | 0.04 | 42 | 1008.7 |
| 20260505214224 | 51 | 37 | 3.0 | 7.0 | 0.00 | 0.37 | 0.04 | 40 | 1008.7 |
| 20260505214003 | 51 | 40 | 3.0 | 7.0 | 0.00 | 0.37 | 0.04 | 41 | 1008.6 |
| 20260505213824 | 51 | 38 | 3.0 | 7.0 | 0.00 | 0.37 | 0.04 | 42 | 1008.6 |
| 20260505213603 | 51 | 30 | 3.0 | 6.0 | 0.00 | 0.37 | 0.04 | 41 | 1008.6 |
| 20260505213403 | 51 | 18 | 3.0 | 6.0 | 0.00 | 0.37 | 0.04 | 43 | 1008.6 |
| 20260505213203 | 51 | 12 | 4.0 | 6.0 | 0.00 | 0.37 | 0.04 | 43 | 1008.6 |
| 20260505213003 | 51 | 10 | 4.0 | 6.0 | 0.00 | 0.37 | 0.04 | 44 | 1008.6 |
| 20260505212803 | 51 | 12 | 4.0 | 8.0 | 0.00 | 0.37 | 0.04 | 42 | 1008.6 |
| 20260505212603 | 51 | 9 | 4.0 | 8.0 | 0.00 | 0.37 | 0.04 | 41 | 1008.6 |
| 20260505212403 | 51 | 13 | 4.0 | 8.0 | 0.00 | 0.37 | 0.04 | 38 | 1008.6 |
| 20260505212203 | 51 | 18 | 4.0 | 8.0 | 0.00 | 0.37 | 0.04 | 39 | 1008.6 |
| 20260505212003 | 51 | 23 | 4.0 | 8.0 | 0.00 | 0.37 | 0.04 | 39 | 1008.5 |
| 20260505211803 | 51 | 28 | 3.0 | 8.0 | 0.00 | 0.37 | 0.04 | 39 | 1008.5 |
| 20260505211603 | 51 | 36 | 3.0 | 6.0 | 0.00 | 0.37 | 0.04 | 41 | 1008.4 |
| 20260505211403 | 51 | 36 | 3.0 | 5.0 | 0.00 | 0.37 | 0.04 | 42 | 1008.4 |
| 20260505211224 | 51 | 34 | 3.0 | 6.0 | 0.00 | 0.37 | 0.04 | 44 | 1008.4 |
| 20260505211003 | 51 | 40 | 4.0 | 12.0 | 0.00 | 0.37 | 0.04 | 38 | 1008.4 |
| 20260505210803 | 51 | 52 | 4.0 | 12.0 | 0.00 | 0.37 | 0.04 | 39 | 1008.4 |
| 20260505210603 | 51 | 51 | 4.0 | 12.0 | 0.00 | 0.37 | 0.04 | 39 | 1008.4 |
| 20260505210403 | 51 | 47 | 5.0 | 12.0 | 0.00 | 0.37 | 0.04 | 38 | 1008.4 |
| 20260505210203 | 51 | 42 | 5.0 | 12.0 | 0.00 | 0.37 | 0.04 | 36 | 1008.4 |
| 20260505210003 | 51 | 29 | 5.0 | 11.0 | 0.00 | 0.37 | 0.04 | 34 | 1008.4 |
| 20260505205803 | 51 | 11 | 4.0 | 9.0 | 0.00 | 0.37 | 0.04 | 38 | 1008.5 |
| 20260505205603 | 51 | 11 | 5.0 | 10.0 | 0.00 | 0.37 | 0.04 | 43 | 1008.5 |
| 20260505205403 | 51 | 12 | 5.0 | 10.0 | 0.00 | 0.37 | 0.04 | 42 | 1008.5 |
| 20260505205203 | 51 | 13 | 5.0 | 10.0 | 0.00 | 0.37 | 0.04 | 40 | 1008.5 |
| 20260505205003 | 51 | 20 | 5.0 | 10.0 | 0.00 | 0.37 | 0.04 | 40 | 1008.5 |
| 20260505204803 | 51 | 27 | 5.0 | 10.0 | 0.00 | 0.37 | 0.04 | 39 | 1008.5 |
| 20260505204624 | 51 | 35 | 5.0 | 12.0 | 0.00 | 0.37 | 0.04 | 43 | 1008.6 |
| 20260505204403 | 52 | 40 | 5.0 | 12.0 | 0.00 | 0.37 | 0.04 | 41 | 1008.6 |
| 20260505204203 | 52 | 43 | 5.0 | 12.0 | 0.00 | 0.37 | 0.04 | 39 | 1008.6 |
| 20260505204003 | 52 | 36 | 5.0 | 12.0 | 0.00 | 0.37 | 0.04 | 41 | 1008.6 |
| 20260505203803 | 52 | 36 | 5.0 | 12.0 | 0.00 | 0.37 | 0.04 | 38 | 1008.6 |
| 20260505203624 | 52 | 40 | 5.0 | 12.0 | 0.00 | 0.37 | 0.04 | 39 | 1008.5 |
| 20260505203403 | 52 | 45 | 5.0 | 12.0 | 0.00 | 0.37 | 0.04 | 42 | 1008.5 |
| 20260505203203 | 52 | 48 | 5.0 | 12.0 | 0.00 | 0.37 | 0.04 | 40 | 1008.6 |
| 20260505203003 | 52 | 48 | 5.0 | 12.0 | 0.00 | 0.37 | 0.04 | 40 | 1008.6 |
| 20260505202803 | 52 | 49 | 5.0 | 12.0 | 0.00 | 0.37 | 0.04 | 41 | 1008.6 |
| 20260505202603 | 52 | 38 | 4.0 | 9.0 | 0.00 | 0.37 | 0.04 | 40 | 1008.6 |
| 20260505202424 | 52 | 39 | 4.0 | 9.0 | 0.00 | 0.37 | 0.04 | 40 | 1008.6 |
| 20260505202203 | 52 | 37 | 4.0 | 9.0 | 0.00 | 0.37 | 0.04 | 39 | 1008.7 |
| 20260505202003 | 53 | 34 | 4.0 | 9.0 | 0.00 | 0.37 | 0.04 | 45 | 1008.7 |
| 20260505201803 | 53 | 20 | 4.0 | 9.0 | 0.00 | 0.37 | 0.04 | 41 | 1008.8 |
| 20260505201603 | 53 | 13 | 4.0 | 9.0 | 0.00 | 0.37 | 0.04 | 41 | 1008.9 |
| 20260505201424 | 53 | 5 | 4.0 | 8.0 | 0.00 | 0.37 | 0.04 | 43 | 1008.8 |
| 20260505201203 | 53 | 1 | 4.0 | 9.0 | 0.00 | 0.37 | 0.04 | 38 | 1008.9 |
| 20260505201024 | 53 | 360 | 4.0 | 9.0 | 0.00 | 0.37 | 0.04 | 38 | 1008.8 |
| 20260505200803 | 53 | 3 | 4.0 | 9.0 | 0.00 | 0.37 | 0.04 | 38 | 1008.8 |
| 20260505200603 | 53 | 359 | 4.0 | 9.0 | 0.00 | 0.37 | 0.04 | 38 | 1008.8 |
| 20260505200403 | 53 | 357 | 4.0 | 9.0 | 0.00 | 0.37 | 0.04 | 39 | 1008.7 |
| 20260505200004 | 52 | 351 | 4.0 | 9.0 | 0.00 | 0.37 | 0.04 | 38 | 1008.7 |
| 20260505195803 | 52 | 350 | 4.0 | 9.0 | 0.00 | 0.37 | 0.04 | 40 | 1008.6 |
| 20260505195603 | 52 | 352 | 5.0 | 9.0 | 0.00 | 0.37 | 0.04 | 38 | 1008.7 |
| 20260505195403 | 52 | 356 | 5.0 | 10.0 | 0.00 | 0.37 | 0.04 | 39 | 1008.7 |
| 20260505195224 | 52 | 357 | 5.0 | 10.0 | 0.00 | 0.37 | 0.04 | 39 | 1008.7 |
| 20260505195003 | 52 | 6 | 5.0 | 10.0 | 0.00 | 0.37 | 0.04 | 40 | 1008.6 |
| 20260505194803 | 52 | 11 | 5.0 | 10.0 | 0.00 | 0.37 | 0.04 | 39 | 1008.6 |
| 20260505194603 | 52 | 11 | 5.0 | 10.0 | 0.00 | 0.37 | 0.04 | 41 | 1008.6 |
| 20260505194403 | 53 | 13 | 5.0 | 8.0 | 0.00 | 0.37 | 0.04 | 44 | 1008.7 |
| 20260505194203 | 53 | 13 | 5.0 | 8.0 | 0.00 | 0.37 | 0.04 | 44 | 1008.7 |
| 20260505194003 | 53 | 7 | 5.0 | 8.0 | 0.00 | 0.37 | 0.04 | 43 | 1008.8 |
| 20260505193803 | 53 | 4 | 5.0 | 9.0 | 0.00 | 0.37 | 0.04 | 42 | 1008.7 |
| 20260505193624 | 53 | 5 | 5.0 | 9.0 | 0.00 | 0.37 | 0.04 | 45 | 1008.8 |
| 20260505193403 | 53 | 6 | 5.0 | 9.0 | 0.00 | 0.37 | 0.04 | 43 | 1008.7 |
| 20260505193203 | 53 | 2 | 5.0 | 9.0 | 0.00 | 0.37 | 0.04 | 42 | 1008.8 |
| 20260505193003 | 53 | 357 | 5.0 | 10.0 | 0.00 | 0.37 | 0.04 | 41 | 1008.7 |
| 20260505192803 | 53 | 356 | 5.0 | 10.0 | 0.00 | 0.37 | 0.04 | 44 | 1008.7 |
| 20260505192603 | 54 | 353 | 5.0 | 10.0 | 0.00 | 0.37 | 0.04 | 43 | 1008.7 |
| 20260505192403 | 53 | 353 | 5.0 | 10.0 | 0.00 | 0.37 | 0.04 | 43 | 1008.6 |
| 20260505192203 | 53 | 356 | 5.0 | 10.0 | 0.00 | 0.37 | 0.04 | 41 | 1008.6 |
| 20260505192003 | 53 | 356 | 5.0 | 10.0 | 0.00 | 0.37 | 0.04 | 42 | 1008.6 |
| 20260505191824 | 53 | 353 | 4.0 | 10.0 | 0.00 | 0.37 | 0.04 | 42 | 1008.5 |
| 20260505191624 | 53 | 349 | 4.0 | 8.0 | 0.00 | 0.37 | 0.04 | 45 | 1008.5 |
| 20260505191403 | 53 | 349 | 4.0 | 9.0 | 0.00 | 0.37 | 0.04 | 43 | 1008.6 |
| 20260505191203 | 53 | 354 | 5.0 | 9.0 | 0.00 | 0.37 | 0.04 | 41 | 1008.6 |
| 20260505191003 | 53 | 1 | 4.0 | 9.0 | 0.00 | 0.37 | 0.04 | 43 | 1008.6 |
| 20260505190803 | 52 | 5 | 4.0 | 9.0 | 0.00 | 0.37 | 0.04 | 42 | 1008.6 |
| 20260505190603 | 53 | 6 | 4.0 | 9.0 | 0.00 | 0.37 | 0.04 | 43 | 1008.6 |
| 20260505190403 | 53 | 10 | 4.0 | 8.0 | 0.00 | 0.37 | 0.04 | 45 | 1008.6 |
| 20260505190224 | 53 | 11 | 4.0 | 7.0 | 0.00 | 0.37 | 0.04 | 45 | 1008.6 |
| 20260505190003 | 53 | 9 | 4.0 | 7.0 | 0.00 | 0.37 | 0.04 | 46 | 1008.6 |
| 20260505185803 | 52 | 5 | 4.0 | 7.0 | 0.00 | 0.37 | 0.04 | 45 | 1008.6 |
| 20260505185603 | 52 | 356 | 4.0 | 8.0 | 0.00 | 0.37 | 0.04 | 46 | 1008.6 |
| 20260505185403 | 52 | 356 | 4.0 | 8.0 | 0.00 | 0.37 | 0.04 | 42 | 1008.6 |
| 20260505185224 | 52 | 352 | 4.0 | 9.0 | 0.00 | 0.37 | 0.04 | 42 | 1008.6 |
| 20260505185024 | 53 | 347 | 4.0 | 9.0 | 0.00 | 0.37 | 0.04 | 43 | 1008.6 |
| 20260505184803 | 53 | 351 | 4.0 | 9.0 | 0.00 | 0.37 | 0.04 | 44 | 1008.6 |
| 20260505184624 | 53 | 356 | 4.0 | 9.0 | 0.00 | 0.37 | 0.04 | 46 | 1008.6 |
| 20260505184403 | 53 | 355 | 4.0 | 9.0 | 0.00 | 0.37 | 0.04 | 46 | 1008.6 |
| 20260505184203 | 52 | 358 | 4.0 | 7.0 | 0.00 | 0.37 | 0.04 | 43 | 1008.7 |
| 20260505184003 | 53 | 359 | 4.0 | 7.0 | 0.00 | 0.37 | 0.04 | 47 | 1008.7 |
| 20260505183824 | 53 | 357 | 4.0 | 7.0 | 0.00 | 0.37 | 0.04 | 45 | 1008.7 |
| 20260505183603 | 53 | 349 | 4.0 | 7.0 | 0.00 | 0.37 | 0.04 | 46 | 1008.6 |
| 20260505183403 | 53 | 337 | 4.0 | 7.0 | 0.00 | 0.37 | 0.04 | 45 | 1008.7 |
| 20260505183203 | 53 | 329 | 4.0 | 8.0 | 0.00 | 0.37 | 0.04 | 45 | 1008.6 |
| 20260505183003 | 53 | 328 | 4.0 | 8.0 | 0.00 | 0.37 | 0.04 | 45 | 1008.6 |
| 20260505182803 | 53 | 328 | 4.0 | 8.0 | 0.00 | 0.37 | 0.04 | 47 | 1008.5 |
| 20260505182603 | 53 | 336 | 4.0 | 8.0 | 0.00 | 0.37 | 0.04 | 45 | 1008.6 |
| 20260505182403 | 53 | 341 | 5.0 | 8.0 | 0.00 | 0.37 | 0.04 | 43 | 1008.6 |
| 20260505182203 | 53 | 349 | 4.0 | 8.0 | 0.00 | 0.37 | 0.04 | 44 | 1008.5 |
| 20260505182003 | 53 | 355 | 5.0 | 8.0 | 0.00 | 0.37 | 0.04 | 45 | 1008.6 |
| 20260505181803 | 53 | 13 | 5.0 | 9.0 | 0.00 | 0.37 | 0.04 | 47 | 1008.6 |
| 20260505181624 | 53 | 23 | 5.0 | 9.0 | 0.00 | 0.37 | 0.04 | 45 | 1008.6 |
| 20260505181403 | 53 | 43 | 5.0 | 9.0 | 0.00 | 0.37 | 0.04 | 46 | 1008.7 |
| 20260505181203 | 53 | 58 | 5.0 | 11.0 | 0.00 | 0.37 | 0.04 | 48 | 1008.6 |
| 20260505181003 | 53 | 69 | 5.0 | 11.0 | 0.00 | 0.37 | 0.04 | 49 | 1008.5 |
| 20260505180803 | 53 | 66 | 5.0 | 11.0 | 0.00 | 0.37 | 0.04 | 48 | 1008.5 |
| 20260505180624 | 53 | 64 | 5.0 | 11.0 | 0.00 | 0.37 | 0.04 | 50 | 1008.5 |
| 20260505180403 | 53 | 60 | 5.0 | 11.0 | 0.00 | 0.37 | 0.04 | 49 | 1008.5 |
| 20260505180203 | 53 | 49 | 4.0 | 10.0 | 0.00 | 0.37 | 0.04 | 50 | 1008.6 |
| 20260505180003 | 53 | 34 | 4.0 | 8.0 | 0.00 | 0.37 | 0.04 | 46 | 1008.6 |
| 20260505175803 | 53 | 30 | 4.0 | 8.0 | 0.00 | 0.37 | 0.04 | 48 | 1008.6 |
| 20260505175603 | 53 | 41 | 4.0 | 9.0 | 0.00 | 0.37 | 0.04 | 49 | 1008.6 |
| 20260505175403 | 53 | 33 | 4.0 | 10.0 | 0.00 | 0.37 | 0.04 | 48 | 1008.5 |
| 20260505175203 | 53 | 21 | 5.0 | 10.0 | 0.00 | 0.37 | 0.04 | 51 | 1008.4 |
| 20260505175003 | 52 | 17 | 5.0 | 10.0 | 0.00 | 0.37 | 0.04 | 48 | 1008.4 |
| 20260505174803 | 53 | 7 | 5.0 | 10.0 | 0.00 | 0.37 | 0.04 | 51 | 1008.2 |
| 20260505174624 | 52 | 2 | 5.0 | 10.0 | 0.00 | 0.37 | 0.04 | 48 | 1008.1 |
| 20260505174403 | 52 | 3 | 5.0 | 10.0 | 0.00 | 0.37 | 0.04 | 45 | 1008.1 |
| 20260505174203 | 52 | 5 | 5.0 | 10.0 | 0.00 | 0.37 | 0.04 | 45 | 1008.2 |
| 20260505174003 | 53 | 8 | 6.0 | 10.0 | 0.00 | 0.37 | 0.04 | 50 | 1008.4 |
| 20260505173803 | 53 | 9 | 6.0 | 10.0 | 0.00 | 0.37 | 0.04 | 49 | 1008.4 |
| 20260505173603 | 53 | 4 | 6.0 | 10.0 | 0.00 | 0.37 | 0.04 | 46 | 1008.3 |
| 20260505173403 | 53 | 4 | 6.0 | 10.0 | 0.00 | 0.37 | 0.04 | 47 | 1008.4 |
| 20260505173203 | 53 | 3 | 6.0 | 10.0 | 0.00 | 0.37 | 0.04 | 47 | 1008.3 |
| 20260505173003 | 53 | 358 | 5.0 | 10.0 | 0.00 | 0.37 | 0.04 | 45 | 1008.3 |
| 20260505172803 | 53 | 356 | 5.0 | 10.0 | 0.00 | 0.37 | 0.04 | 50 | 1008.2 |
| 20260505172603 | 52 | 357 | 5.0 | 10.0 | 0.00 | 0.37 | 0.04 | 48 | 1008.3 |
| 20260505172403 | 52 | 355 | 5.0 | 10.0 | 0.00 | 0.37 | 0.04 | 49 | 1008.2 |
| 20260505172203 | 52 | 356 | 5.0 | 10.0 | 0.00 | 0.37 | 0.04 | 51 | 1008.3 |
| 20260505172003 | 52 | 2 | 5.0 | 9.0 | 0.00 | 0.37 | 0.04 | 49 | 1008.2 |
| 20260505171803 | 52 | 15 | 5.0 | 9.0 | 0.00 | 0.37 | 0.04 | 52 | 1008.2 |
| 20260505171603 | 52 | 26 | 4.0 | 9.0 | 0.00 | 0.37 | 0.04 | 47 | 1008.2 |
| 20260505171403 | 52 | 29 | 4.0 | 9.0 | 0.00 | 0.37 | 0.04 | 49 | 1008.1 |
| 20260505171203 | 52 | 34 | 4.0 | 8.0 | 0.00 | 0.37 | 0.04 | 51 | 1008.1 |
| 20260505171003 | 52 | 39 | 4.0 | 9.0 | 0.00 | 0.37 | 0.04 | 51 | 1008.1 |
| 20260505170803 | 52 | 29 | 4.0 | 10.0 | 0.00 | 0.37 | 0.04 | 51 | 1008.1 |
| 20260505170624 | 52 | 20 | 5.0 | 10.0 | 0.00 | 0.37 | 0.04 | 53 | 1008.1 |
| 20260505170403 | 52 | 14 | 5.0 | 10.0 | 0.00 | 0.37 | 0.04 | 50 | 1007.9 |
| 20260505170224 | 52 | 9 | 5.0 | 10.0 | 0.00 | 0.37 | 0.04 | 51 | 1007.9 |
| 20260505170004 | 52 | 2 | 5.0 | 10.0 | 0.00 | 0.37 | 0.04 | 50 | 1007.8 |
| 20260505165803 | 52 | 356 | 5.0 | 10.0 | 0.00 | 0.37 | 0.04 | 50 | 1007.9 |
| 20260505165603 | 52 | 354 | 5.0 | 10.0 | 0.00 | 0.37 | 0.04 | 52 | 1007.8 |
| 20260505165424 | 52 | 6 | 5.0 | 11.0 | 0.00 | 0.37 | 0.04 | 51 | 1007.8 |
| 20260505165203 | 52 | 15 | 5.0 | 11.0 | 0.00 | 0.37 | 0.04 | 54 | 1007.8 |
| 20260505165003 | 52 | 23 | 5.0 | 11.0 | 0.00 | 0.37 | 0.04 | 51 | 1007.8 |
| 20260505164803 | 52 | 40 | 5.0 | 11.0 | 0.00 | 0.37 | 0.04 | 54 | 1007.8 |
| 20260505164603 | 51 | 45 | 5.0 | 11.0 | 0.00 | 0.37 | 0.04 | 55 | 1007.8 |
| 20260505164403 | 51 | 26 | 4.0 | 11.0 | 0.00 | 0.37 | 0.04 | 55 | 1007.6 |
| 20260505164203 | 51 | 44 | 4.0 | 10.0 | 0.00 | 0.37 | 0.04 | 56 | 1007.6 |
| 20260505164003 | 51 | 48 | 4.0 | 10.0 | 0.00 | 0.37 | 0.04 | 56 | 1007.6 |
| 20260505163803 | 50 | 52 | 4.0 | 10.0 | 0.00 | 0.37 | 0.04 | 56 | 1007.6 |
| 20260505163624 | 50 | 47 | 4.0 | 10.0 | 0.00 | 0.37 | 0.04 | 55 | 1007.6 |
| 20260505163403 | 50 | 64 | 4.0 | 8.0 | 0.00 | 0.37 | 0.04 | 57 | 1007.6 |
| 20260505163203 | 50 | 47 | 4.0 | 10.0 | 0.00 | 0.37 | 0.04 | 55 | 1007.5 |
| 20260505163003 | 50 | 34 | 5.0 | 10.0 | 0.00 | 0.37 | 0.04 | 56 | 1007.5 |
| 20260505162824 | 50 | 27 | 5.0 | 10.0 | 0.00 | 0.37 | 0.04 | 56 | 1007.5 |
| 20260505162603 | 50 | 28 | 5.0 | 10.0 | 0.00 | 0.37 | 0.04 | 58 | 1007.7 |
| 20260505162403 | 50 | 21 | 4.0 | 10.0 | 0.00 | 0.37 | 0.04 | 59 | 1007.7 |
| 20260505162203 | 49 | 24 | 4.0 | 8.0 | 0.00 | 0.37 | 0.04 | 58 | 1007.7 |
| 20260505162024 | 49 | 26 | 4.0 | 8.0 | 0.00 | 0.37 | 0.04 | 60 | 1007.7 |
| 20260505161803 | 49 | 23 | 4.0 | 8.0 | 0.00 | 0.37 | 0.04 | 59 | 1007.7 |
| 20260505161603 | 48 | 33 | 5.0 | 8.0 | 0.00 | 0.37 | 0.04 | 59 | 1007.9 |
| 20260505161403 | 48 | 28 | 5.0 | 9.0 | 0.00 | 0.37 | 0.04 | 61 | 1008.0 |
| 20260505161203 | 48 | 24 | 5.0 | 9.0 | 0.00 | 0.37 | 0.04 | 61 | 1008.1 |
| 20260505161003 | 48 | 13 | 5.0 | 9.0 | 0.00 | 0.37 | 0.04 | 60 | 1008.1 |
| 20260505160803 | 48 | 360 | 5.0 | 9.0 | 0.00 | 0.37 | 0.04 | 61 | 1008.2 |
| 20260505160603 | 48 | 346 | 4.0 | 9.0 | 0.00 | 0.37 | 0.04 | 59 | 1008.2 |
| 20260505160403 | 48 | 342 | 3.0 | 7.0 | 0.00 | 0.37 | 0.04 | 61 | 1008.2 |
| 20260505160203 | 47 | 330 | 3.0 | 7.0 | 0.00 | 0.37 | 0.04 | 61 | 1008.1 |
| 20260505153203 | 46 | 359 | 3.0 | 6.0 | 0.03 | 0.37 | 0.04 | 65 | 1008.4 |
| 20260505153003 | 46 | 360 | 4.0 | 7.0 | 0.03 | 0.37 | 0.04 | 64 | 1008.3 |
| 20260505152803 | 46 | 358 | 4.0 | 8.0 | 0.03 | 0.37 | 0.04 | 64 | 1008.4 |
| 20260505152603 | 46 | 1 | 4.0 | 8.0 | 0.03 | 0.37 | 0.04 | 63 | 1008.5 |
| 20260505152403 | 46 | 2 | 4.0 | 8.0 | 0.03 | 0.37 | 0.04 | 64 | 1008.5 |
| 20260505152203 | 46 | 9 | 5.0 | 8.0 | 0.03 | 0.37 | 0.04 | 64 | 1008.4 |
| 20260505152003 | 46 | 22 | 5.0 | 8.0 | 0.03 | 0.37 | 0.04 | 65 | 1008.4 |
| 20260505151824 | 46 | 24 | 5.0 | 11.0 | 0.03 | 0.37 | 0.04 | 65 | 1008.5 |
| 20260505151624 | 46 | 21 | 5.0 | 11.0 | 0.03 | 0.37 | 0.04 | 65 | 1008.6 |
| 20260505151403 | 46 | 22 | 5.0 | 11.0 | 0.03 | 0.37 | 0.04 | 65 | 1008.7 |
| 20260505151203 | 46 | 16 | 4.0 | 11.0 | 0.04 | 0.37 | 0.04 | 65 | 1008.7 |
| 20260505151003 | 46 | 7 | 4.0 | 11.0 | 0.04 | 0.37 | 0.04 | 65 | 1008.7 |
| 20260505150803 | 46 | 4 | 4.0 | 9.0 | 0.04 | 0.37 | 0.04 | 66 | 1008.7 |
| 20260505150603 | 46 | 358 | 4.0 | 9.0 | 0.04 | 0.37 | 0.04 | 66 | 1008.7 |
| 20260505150403 | 46 | 352 | 3.0 | 9.0 | 0.04 | 0.37 | 0.04 | 66 | 1008.7 |
| 20260505150203 | 46 | 351 | 3.0 | 9.0 | 0.04 | 0.37 | 0.04 | 65 | 1008.6 |
| 20260505140603 | 48 | 80 | 4.0 | 8.0 | 0.00 | 0.33 | 0.00 | 63 | 1008.0 |
| 20260505140403 | 48 | 74 | 4.0 | 8.0 | 0.00 | 0.33 | 0.00 | 61 | 1008.0 |
| 20260505140203 | 48 | 63 | 4.0 | 9.0 | 0.00 | 0.33 | 0.00 | 63 | 1008.0 |
| 20260505130203 | 51 | 81 | 3.0 | 7.0 | 0.00 | 0.33 | 0.00 | 54 | 1006.3 |
| 20260505125003 | 51 | 51 | 4.0 | 8.0 | 0.00 | 0.33 | 0.00 | 56 | 1006.3 |
| 20260505124824 | 51 | 47 | 5.0 | 8.0 | 0.00 | 0.33 | 0.00 | 56 | 1006.2 |
| 20260505124603 | 51 | 49 | 5.0 | 11.0 | 0.00 | 0.33 | 0.00 | 56 | 1006.2 |
| 20260505124403 | 51 | 41 | 5.0 | 11.0 | 0.00 | 0.33 | 0.00 | 56 | 1006.3 |
| 20260505124203 | 51 | 30 | 5.0 | 15.0 | 0.00 | 0.33 | 0.00 | 56 | 1006.3 |
| 20260505124003 | 51 | 30 | 5.0 | 15.0 | 0.00 | 0.33 | 0.00 | 56 | 1006.3 |
| 20260505123803 | 52 | 26 | 6.0 | 15.0 | 0.00 | 0.33 | 0.00 | 55 | 1006.1 |
| 20260505123603 | 52 | 21 | 6.0 | 15.0 | 0.00 | 0.33 | 0.00 | 56 | 1006.0 |
| 20260505123403 | 52 | 23 | 6.0 | 15.0 | 0.00 | 0.33 | 0.00 | 55 | 1005.9 |
| 20260505123203 | 52 | 22 | 6.0 | 12.0 | 0.00 | 0.33 | 0.00 | 57 | 1005.9 |
| 20260505123024 | 52 | 14 | 6.0 | 11.0 | 0.00 | 0.33 | 0.00 | 56 | 1005.8 |
| 20260505122803 | 52 | 14 | 5.0 | 11.0 | 0.00 | 0.33 | 0.00 | 56 | 1005.7 |
| 20260505122603 | 52 | 9 | 5.0 | 11.0 | 0.00 | 0.33 | 0.00 | 56 | 1005.5 |
| 20260505122403 | 52 | 5 | 5.0 | 11.0 | 0.00 | 0.33 | 0.00 | 56 | 1005.6 |
| 20260505122203 | 52 | 4 | 5.0 | 9.0 | 0.00 | 0.33 | 0.00 | 58 | 1005.6 |
| 20260505122003 | 52 | 3 | 4.0 | 9.0 | 0.00 | 0.33 | 0.00 | 58 | 1005.7 |
| 20260505121803 | 52 | 357 | 4.0 | 9.0 | 0.00 | 0.33 | 0.00 | 56 | 1005.6 |
| 20260505121603 | 52 | 353 | 3.0 | 7.0 | 0.00 | 0.33 | 0.00 | 55 | 1005.2 |
| 20260505121404 | 52 | 346 | 3.0 | 7.0 | 0.00 | 0.33 | 0.00 | 54 | 1005.0 |
| 20260505121203 | 52 | 339 | 2.0 | 6.0 | 0.00 | 0.33 | 0.00 | 55 | 1004.9 |
| 20260505121003 | 52 | 336 | 2.0 | 6.0 | 0.00 | 0.33 | 0.00 | 54 | 1005.0 |
| 20260505120824 | 52 | 338 | 2.0 | 5.0 | 0.00 | 0.33 | 0.00 | 56 | 1005.1 |
| 20260505120603 | 52 | 336 | 1.0 | 4.0 | 0.00 | 0.33 | 0.00 | 56 | 1004.9 |
| 20260505120403 | 51 | 345 | 1.0 | 4.0 | 0.00 | 0.33 | 0.00 | 56 | 1004.9 |
| 20260505120203 | 51 | 352 | 1.0 | 4.0 | 0.00 | 0.33 | 0.00 | 59 | 1005.0 |
| 20260505120003 | 51 | 359 | 0.0 | 4.0 | 0.00 | 0.33 | 0.00 | 58 | 1004.7 |
| 20260505115803 | 51 | 0 | 0.0 | 0.0 | 0.00 | 0.33 | 0.00 | 58 | 1004.5 |
| 20260505115603 | 51 | 8 | 0.0 | 1.0 | 0.00 | 0.33 | 0.00 | 59 | 1004.4 |
| 20260505115403 | 51 | 7 | 0.0 | 4.0 | 0.00 | 0.33 | 0.00 | 58 | 1004.3 |
| 20260505115203 | 51 | 6 | 1.0 | 4.0 | 0.00 | 0.33 | 0.00 | 57 | 1004.2 |
| 20260505115003 | 51 | 5 | 1.0 | 4.0 | 0.00 | 0.33 | 0.00 | 57 | 1004.4 |
| 20260505114803 | 51 | 8 | 2.0 | 4.0 | 0.00 | 0.33 | 0.00 | 57 | 1004.5 |
| 20260505114603 | 51 | 6 | 2.0 | 4.0 | 0.00 | 0.33 | 0.00 | 56 | 1004.3 |
| 20260505114424 | 51 | 6 | 1.0 | 3.0 | 0.00 | 0.33 | 0.00 | 56 | 1004.3 |
| 20260505114203 | 51 | 6 | 1.0 | 3.0 | 0.00 | 0.33 | 0.00 | 54 | 1004.4 |
| 20260505114003 | 51 | 1 | 1.0 | 3.0 | 0.00 | 0.33 | 0.00 | 54 | 1004.6 |
| 20260505113803 | 51 | 353 | 1.0 | 3.0 | 0.00 | 0.33 | 0.00 | 54 | 1004.5 |
| 20260505113603 | 51 | 357 | 1.0 | 4.0 | 0.00 | 0.33 | 0.00 | 54 | 1004.5 |
| 20260505113403 | 51 | 357 | 1.0 | 4.0 | 0.00 | 0.33 | 0.00 | 54 | 1004.6 |
| 20260505113203 | 51 | 357 | 1.0 | 4.0 | 0.00 | 0.33 | 0.00 | 54 | 1004.7 |
| 20260505113024 | 51 | 2 | 1.0 | 4.0 | 0.00 | 0.33 | 0.00 | 55 | 1004.7 |
| 20260505112824 | 51 | 10 | 1.0 | 4.0 | 0.00 | 0.33 | 0.00 | 55 | 1004.7 |
| 20260505112603 | 52 | 21 | 1.0 | 3.0 | 0.00 | 0.33 | 0.00 | 55 | 1004.6 |
| 20260505112403 | 52 | 1 | 1.0 | 4.0 | 0.00 | 0.33 | 0.00 | 54 | 1004.5 |
| 20260505112203 | 52 | 352 | 2.0 | 5.0 | 0.00 | 0.33 | 0.00 | 53 | 1004.7 |
| 20260505112003 | 52 | 354 | 2.0 | 5.0 | 0.00 | 0.33 | 0.00 | 52 | 1004.6 |
| 20260505111803 | 52 | 349 | 2.0 | 5.0 | 0.00 | 0.33 | 0.00 | 53 | 1004.6 |
| 20260505111603 | 52 | 342 | 2.0 | 5.0 | 0.00 | 0.33 | 0.00 | 53 | 1004.7 |
| 20260505111403 | 52 | 337 | 2.0 | 5.0 | 0.00 | 0.33 | 0.00 | 52 | 1004.9 |
| 20260505111224 | 52 | 332 | 2.0 | 5.0 | 0.00 | 0.33 | 0.00 | 52 | 1004.8 |
| 20260505111024 | 52 | 334 | 2.0 | 5.0 | 0.00 | 0.33 | 0.00 | 52 | 1004.8 |
| 20260505110803 | 52 | 332 | 2.0 | 7.0 | 0.00 | 0.33 | 0.00 | 52 | 1004.9 |
| 20260505110603 | 52 | 336 | 3.0 | 7.0 | 0.00 | 0.33 | 0.00 | 51 | 1005.0 |
| 20260505110403 | 52 | 333 | 2.0 | 7.0 | 0.00 | 0.33 | 0.00 | 52 | 1005.2 |
| 20260505110203 | 52 | 339 | 2.0 | 7.0 | 0.00 | 0.33 | 0.00 | 51 | 1005.1 |
| 20260505102203 | 51 | 20 | 3.0 | 6.0 | 0.00 | 0.33 | 0.00 | 55 | 1003.8 |
| 20260505102024 | 51 | 19 | 3.0 | 6.0 | 0.00 | 0.33 | 0.00 | 55 | 1003.8 |
| 20260505101803 | 51 | 21 | 3.0 | 6.0 | 0.00 | 0.33 | 0.00 | 54 | 1003.8 |
| 20260505101603 | 51 | 22 | 3.0 | 6.0 | 0.00 | 0.33 | 0.00 | 55 | 1003.9 |
| 20260505101403 | 51 | 25 | 3.0 | 6.0 | 0.00 | 0.33 | 0.00 | 55 | 1003.9 |
| 20260505101203 | 51 | 32 | 2.0 | 5.0 | 0.00 | 0.33 | 0.00 | 57 | 1003.8 |
| 20260505101003 | 51 | 35 | 2.0 | 5.0 | 0.00 | 0.33 | 0.00 | 57 | 1003.8 |
| 20260505100803 | 51 | 35 | 2.0 | 4.0 | 0.00 | 0.33 | 0.00 | 58 | 1003.8 |
| 20260505100603 | 51 | 26 | 2.0 | 6.0 | 0.00 | 0.33 | 0.00 | 58 | 1003.8 |
| 20260505100403 | 51 | 18 | 3.0 | 6.0 | 0.00 | 0.33 | 0.00 | 58 | 1003.7 |
| 20260505100224 | 51 | 12 | 3.0 | 6.0 | 0.00 | 0.33 | 0.00 | 57 | 1003.7 |
| 20260505100024 | 52 | 8 | 3.0 | 6.0 | 0.00 | 0.33 | 0.00 | 57 | 1003.7 |
| 20260505095824 | 52 | 6 | 3.0 | 6.0 | 0.00 | 0.33 | 0.00 | 56 | 1003.7 |
| 20260505095603 | 52 | 6 | 3.0 | 6.0 | 0.00 | 0.33 | 0.00 | 54 | 1003.6 |
| 20260505095424 | 52 | 6 | 3.0 | 6.0 | 0.00 | 0.33 | 0.00 | 52 | 1003.3 |
| 20260505095203 | 53 | 10 | 3.0 | 6.0 | 0.00 | 0.33 | 0.00 | 54 | 1003.0 |
| 20260505095003 | 53 | 11 | 3.0 | 6.0 | 0.00 | 0.33 | 0.00 | 54 | 1002.9 |
| 20260505094803 | 53 | 5 | 4.0 | 10.0 | 0.00 | 0.33 | 0.00 | 53 | 1002.8 |
| 20260505094603 | 54 | 4 | 4.0 | 10.0 | 0.00 | 0.33 | 0.00 | 51 | 1002.9 |
| 20260505094403 | 54 | 4 | 4.0 | 10.0 | 0.00 | 0.33 | 0.00 | 52 | 1003.1 |
| 20260505094203 | 54 | 3 | 4.0 | 10.0 | 0.00 | 0.33 | 0.00 | 53 | 1003.5 |
| 20260505094003 | 54 | 2 | 4.0 | 10.0 | 0.00 | 0.33 | 0.00 | 53 | 1003.7 |
| 20260505093803 | 54 | 1 | 3.0 | 8.0 | 0.00 | 0.33 | 0.00 | 53 | 1003.6 |
| 20260505093603 | 54 | 359 | 3.0 | 8.0 | 0.00 | 0.33 | 0.00 | 53 | 1003.4 |
| 20260505093403 | 54 | 355 | 3.0 | 8.0 | 0.00 | 0.33 | 0.00 | 53 | 1003.3 |
| 20260505093203 | 55 | 350 | 3.0 | 8.0 | 0.00 | 0.33 | 0.00 | 53 | 1003.4 |
| 20260505093003 | 55 | 345 | 3.0 | 8.0 | 0.00 | 0.33 | 0.00 | 54 | 1003.4 |
| 20260505092803 | 55 | 339 | 3.0 | 8.0 | 0.00 | 0.33 | 0.00 | 54 | 1003.5 |
| 20260505092603 | 55 | 331 | 3.0 | 8.0 | 0.00 | 0.33 | 0.00 | 55 | 1003.6 |
| 20260505092403 | 55 | 321 | 2.0 | 7.0 | 0.00 | 0.33 | 0.00 | 56 | 1003.4 |
| 20260505092203 | 55 | 315 | 2.0 | 4.0 | 0.00 | 0.33 | 0.00 | 56 | 1003.4 |
| 20260505092003 | 55 | 308 | 2.0 | 4.0 | 0.00 | 0.33 | 0.00 | 56 | 1003.3 |
| 20260505091803 | 55 | 304 | 1.0 | 4.0 | 0.00 | 0.33 | 0.00 | 57 | 1002.9 |
| 20260505091603 | 55 | 313 | 1.0 | 3.0 | 0.00 | 0.33 | 0.00 | 58 | 1002.8 |
| 20260505091424 | 55 | 324 | 1.0 | 3.0 | 0.00 | 0.33 | 0.00 | 57 | 1002.9 |
| 20260505091203 | 55 | 342 | 1.0 | 4.0 | 0.00 | 0.33 | 0.00 | 57 | 1002.9 |
| 20260505091003 | 56 | 346 | 2.0 | 6.0 | 0.00 | 0.33 | 0.00 | 58 | 1002.9 |
| 20260505090803 | 56 | 341 | 2.0 | 6.0 | 0.00 | 0.33 | 0.00 | 57 | 1002.8 |
| 20260505090603 | 56 | 337 | 3.0 | 6.0 | 0.00 | 0.33 | 0.00 | 57 | 1002.8 |
| 20260505090403 | 56 | 329 | 3.0 | 6.0 | 0.00 | 0.33 | 0.00 | 57 | 1002.8 |
| 20260505090203 | 56 | 324 | 3.0 | 6.0 | 0.00 | 0.33 | 0.00 | 56 | 1002.8 |
| 20260505090003 | 56 | 324 | 3.0 | 6.0 | 0.00 | 0.33 | 0.00 | 57 | 1002.9 |
| 20260505085824 | 56 | 328 | 3.0 | 8.0 | 0.00 | 0.33 | 0.00 | 58 | 1003.0 |
| 20260505085624 | 56 | 328 | 3.0 | 8.0 | 0.00 | 0.33 | 0.00 | 59 | 1003.0 |
| 20260505085403 | 56 | 328 | 3.0 | 8.0 | 0.00 | 0.33 | 0.00 | 59 | 1003.1 |
| 20260505085203 | 56 | 325 | 4.0 | 8.0 | 0.00 | 0.33 | 0.00 | 59 | 1003.1 |
| 20260505085024 | 56 | 320 | 4.0 | 8.0 | 0.00 | 0.33 | 0.00 | 59 | 1003.0 |
| 20260505084824 | 56 | 316 | 4.0 | 7.0 | 0.00 | 0.33 | 0.00 | 60 | 1002.7 |
| 20260505084603 | 56 | 313 | 4.0 | 7.0 | 0.00 | 0.33 | 0.00 | 60 | 1002.6 |
| 20260505084403 | 56 | 316 | 4.0 | 7.0 | 0.00 | 0.33 | 0.00 | 61 | 1002.6 |
| 20260505084203 | 56 | 319 | 4.0 | 7.0 | 0.00 | 0.33 | 0.00 | 62 | 1002.6 |
| 20260505084003 | 56 | 321 | 4.0 | 6.0 | 0.00 | 0.33 | 0.00 | 64 | 1002.6 |
| 20260505083803 | 56 | 321 | 4.0 | 6.0 | 0.00 | 0.33 | 0.00 | 64 | 1002.7 |
| 20260505083603 | 56 | 320 | 4.0 | 7.0 | 0.00 | 0.33 | 0.00 | 65 | 1002.6 |
| 20260505083403 | 56 | 316 | 4.0 | 7.0 | 0.00 | 0.33 | 0.00 | 65 | 1002.6 |
| 20260505083203 | 56 | 312 | 4.0 | 7.0 | 0.00 | 0.33 | 0.00 | 65 | 1002.5 |
| 20260505083003 | 56 | 310 | 4.0 | 7.0 | 0.00 | 0.33 | 0.00 | 65 | 1002.3 |
| 20260505082803 | 56 | 307 | 4.0 | 7.0 | 0.00 | 0.33 | 0.00 | 65 | 1002.3 |
| 20260505082603 | 56 | 305 | 4.0 | 7.0 | 0.00 | 0.33 | 0.00 | 66 | 1002.3 |
| 20260505082403 | 56 | 304 | 4.0 | 7.0 | 0.00 | 0.33 | 0.00 | 66 | 1002.2 |
| 20260505082203 | 56 | 304 | 4.0 | 7.0 | 0.00 | 0.33 | 0.00 | 66 | 1002.2 |
| 20260505082003 | 56 | 304 | 4.0 | 7.0 | 0.00 | 0.33 | 0.00 | 66 | 1002.2 |
| 20260505081803 | 56 | 302 | 3.0 | 7.0 | 0.00 | 0.33 | 0.00 | 66 | 1002.1 |
| 20260505081603 | 56 | 305 | 3.0 | 7.0 | 0.00 | 0.33 | 0.00 | 66 | 1002.0 |
| 20260505081403 | 56 | 306 | 3.0 | 7.0 | 0.00 | 0.33 | 0.00 | 66 | 1002.0 |
| 20260505081203 | 56 | 305 | 3.0 | 8.0 | 0.00 | 0.33 | 0.00 | 66 | 1002.0 |
| 20260505081003 | 56 | 305 | 3.0 | 8.0 | 0.00 | 0.33 | 0.00 | 66 | 1002.1 |
| 20260505080803 | 56 | 305 | 3.0 | 8.0 | 0.00 | 0.33 | 0.00 | 66 | 1002.1 |
| 20260505080603 | 56 | 302 | 3.0 | 8.0 | 0.00 | 0.33 | 0.00 | 66 | 1002.0 |
| 20260505080403 | 56 | 301 | 3.0 | 8.0 | 0.00 | 0.33 | 0.00 | 66 | 1002.0 |
| 20260505080224 | 56 | 301 | 3.0 | 7.0 | 0.00 | 0.33 | 0.00 | 66 | 1001.9 |
| 20260505080003 | 56 | 299 | 3.0 | 7.0 | 0.00 | 0.33 | 0.00 | 66 | 1001.8 |
| 20260505075803 | 56 | 299 | 3.0 | 7.0 | 0.00 | 0.33 | 0.00 | 66 | 1001.8 |
| 20260505075603 | 57 | 301 | 3.0 | 7.0 | 0.00 | 0.33 | 0.00 | 66 | 1002.0 |
| 20260505075403 | 56 | 300 | 3.0 | 7.0 | 0.00 | 0.33 | 0.00 | 66 | 1001.9 |
| 20260505075203 | 56 | 300 | 3.0 | 6.0 | 0.00 | 0.33 | 0.00 | 66 | 1001.9 |
| 20260505075003 | 56 | 302 | 3.0 | 6.0 | 0.00 | 0.33 | 0.00 | 66 | 1001.9 |
| 20260505074803 | 57 | 302 | 4.0 | 8.0 | 0.00 | 0.33 | 0.00 | 66 | 1001.9 |
| 20260505074624 | 57 | 303 | 4.0 | 8.0 | 0.00 | 0.33 | 0.00 | 66 | 1002.1 |
| 20260505074403 | 57 | 303 | 4.0 | 8.0 | 0.00 | 0.33 | 0.00 | 66 | 1002.1 |
| 20260505074203 | 57 | 303 | 4.0 | 8.0 | 0.00 | 0.33 | 0.00 | 66 | 1002.2 |
| 20260505074003 | 57 | 303 | 4.0 | 8.0 | 0.00 | 0.33 | 0.00 | 66 | 1002.2 |
| 20260505073803 | 57 | 304 | 4.0 | 8.0 | 0.00 | 0.33 | 0.00 | 66 | 1002.2 |
| 20260505073603 | 57 | 303 | 3.0 | 7.0 | 0.00 | 0.33 | 0.00 | 66 | 1002.2 |
| 20260505073403 | 57 | 306 | 3.0 | 6.0 | 0.00 | 0.33 | 0.00 | 66 | 1002.3 |
| 20260505073203 | 57 | 306 | 3.0 | 6.0 | 0.00 | 0.33 | 0.00 | 66 | 1002.3 |
| 20260505073003 | 57 | 306 | 3.0 | 6.0 | 0.00 | 0.33 | 0.00 | 66 | 1002.2 |
| 20260505072803 | 57 | 305 | 3.0 | 6.0 | 0.00 | 0.33 | 0.00 | 66 | 1002.2 |
| 20260505072603 | 57 | 306 | 4.0 | 6.0 | 0.00 | 0.33 | 0.00 | 66 | 1002.1 |
| 20260505072424 | 57 | 304 | 4.0 | 6.0 | 0.00 | 0.33 | 0.00 | 66 | 1002.1 |
| 20260505072224 | 57 | 304 | 3.0 | 6.0 | 0.00 | 0.33 | 0.00 | 66 | 1002.2 |
| 20260505072003 | 57 | 306 | 3.0 | 6.0 | 0.00 | 0.33 | 0.00 | 66 | 1002.1 |
| 20260505071803 | 57 | 307 | 3.0 | 5.0 | 0.00 | 0.33 | 0.00 | 66 | 1002.1 |
| 20260505071603 | 57 | 305 | 3.0 | 5.0 | 0.00 | 0.33 | 0.00 | 66 | 1001.8 |
| 20260505071424 | 57 | 305 | 3.0 | 7.0 | 0.00 | 0.33 | 0.00 | 65 | 1001.6 |
| 20260505071203 | 57 | 305 | 4.0 | 7.0 | 0.00 | 0.33 | 0.00 | 65 | 1001.5 |
| 20260505071003 | 57 | 304 | 4.0 | 7.0 | 0.00 | 0.33 | 0.00 | 65 | 1001.5 |
| 20260505070803 | 57 | 305 | 4.0 | 7.0 | 0.00 | 0.33 | 0.00 | 65 | 1001.5 |
| 20260505070603 | 57 | 306 | 4.0 | 10.0 | 0.00 | 0.33 | 0.00 | 65 | 1001.6 |
| 20260505070403 | 57 | 305 | 5.0 | 10.0 | 0.00 | 0.33 | 0.00 | 65 | 1001.7 |
| 20260505070203 | 57 | 307 | 5.0 | 10.0 | 0.00 | 0.33 | 0.00 | 65 | 1001.7 |
| 20260505070003 | 58 | 306 | 5.0 | 10.0 | 0.00 | 0.33 | 0.00 | 65 | 1001.7 |
| 20260505065803 | 58 | 306 | 6.0 | 10.0 | 0.00 | 0.33 | 0.00 | 65 | 1001.7 |
| 20260505065603 | 58 | 307 | 6.0 | 10.0 | 0.00 | 0.33 | 0.00 | 65 | 1001.7 |
| 20260505065403 | 58 | 308 | 6.0 | 10.0 | 0.00 | 0.33 | 0.00 | 65 | 1001.7 |
| 20260505065203 | 58 | 306 | 6.0 | 10.0 | 0.00 | 0.33 | 0.00 | 65 | 1001.8 |
| 20260505065003 | 58 | 307 | 6.0 | 10.0 | 0.00 | 0.33 | 0.00 | 64 | 1001.8 |
| 20260505064803 | 58 | 309 | 6.0 | 11.0 | 0.00 | 0.33 | 0.00 | 65 | 1001.8 |
| 20260505064603 | 58 | 309 | 6.0 | 11.0 | 0.00 | 0.33 | 0.00 | 64 | 1001.8 |
| 20260505064403 | 58 | 309 | 6.0 | 11.0 | 0.00 | 0.33 | 0.00 | 64 | 1001.8 |
| 20260505064203 | 58 | 311 | 6.0 | 11.0 | 0.00 | 0.33 | 0.00 | 64 | 1001.8 |
| 20260505064003 | 58 | 310 | 6.0 | 11.0 | 0.00 | 0.33 | 0.00 | 64 | 1001.7 |
| 20260505063803 | 58 | 310 | 6.0 | 11.0 | 0.00 | 0.33 | 0.00 | 64 | 1001.6 |
| 20260505063603 | 58 | 309 | 6.0 | 11.0 | 0.00 | 0.33 | 0.00 | 64 | 1001.5 |
| 20260505063424 | 58 | 309 | 6.0 | 11.0 | 0.00 | 0.33 | 0.00 | 64 | 1001.5 |
| 20260505063224 | 58 | 309 | 7.0 | 12.0 | 0.00 | 0.33 | 0.00 | 64 | 1001.5 |
| 20260505063003 | 58 | 309 | 7.0 | 12.0 | 0.00 | 0.33 | 0.00 | 64 | 1001.4 |
| 20260505062803 | 58 | 309 | 7.0 | 12.0 | 0.00 | 0.33 | 0.00 | 64 | 1001.4 |
| 20260505062603 | 58 | 309 | 7.0 | 12.0 | 0.00 | 0.33 | 0.00 | 64 | 1001.4 |
| 20260505062403 | 58 | 308 | 7.0 | 12.0 | 0.00 | 0.33 | 0.00 | 64 | 1001.5 |
| 20260505062203 | 58 | 307 | 7.0 | 14.0 | 0.00 | 0.33 | 0.00 | 64 | 1001.4 |
| 20260505062003 | 58 | 308 | 7.0 | 14.0 | 0.00 | 0.33 | 0.00 | 64 | 1001.4 |
| 20260505061803 | 58 | 307 | 7.0 | 14.0 | 0.00 | 0.33 | 0.00 | 64 | 1001.4 |
| 20260505061603 | 58 | 307 | 7.0 | 14.0 | 0.00 | 0.33 | 0.00 | 64 | 1001.4 |
| 20260505061403 | 58 | 308 | 6.0 | 14.0 | 0.00 | 0.33 | 0.00 | 64 | 1001.4 |
| 20260505061203 | 58 | 309 | 6.0 | 11.0 | 0.00 | 0.33 | 0.00 | 64 | 1001.4 |
| 20260505061003 | 58 | 309 | 5.0 | 11.0 | 0.00 | 0.33 | 0.00 | 64 | 1001.4 |
| 20260505060824 | 58 | 311 | 5.0 | 11.0 | 0.00 | 0.33 | 0.00 | 64 | 1001.4 |
| 20260505060603 | 58 | 311 | 5.0 | 9.0 | 0.00 | 0.33 | 0.00 | 64 | 1001.3 |
| 20260505060403 | 58 | 313 | 5.0 | 10.0 | 0.00 | 0.33 | 0.00 | 65 | 1001.3 |
| 20260505060224 | 58 | 312 | 6.0 | 10.0 | 0.00 | 0.33 | 0.00 | 65 | 1001.3 |
| 20260505060003 | 58 | 312 | 6.0 | 10.0 | 0.00 | 0.33 | 0.00 | 65 | 1001.2 |
| 20260505055803 | 58 | 310 | 6.0 | 10.0 | 0.00 | 0.33 | 0.00 | 65 | 1001.2 |
| 20260505055603 | 58 | 310 | 6.0 | 10.0 | 0.00 | 0.33 | 0.00 | 65 | 1001.2 |
| 20260505055403 | 58 | 309 | 6.0 | 10.0 | 0.00 | 0.33 | 0.00 | 65 | 1001.2 |
| 20260505055203 | 57 | 306 | 6.0 | 10.0 | 0.00 | 0.33 | 0.00 | 65 | 1001.1 |
| 20260505055003 | 57 | 305 | 6.0 | 10.0 | 0.00 | 0.33 | 0.00 | 66 | 1001.2 |
| 20260505054824 | 57 | 304 | 6.0 | 10.0 | 0.00 | 0.33 | 0.00 | 65 | 1001.2 |
| 20260505054603 | 57 | 304 | 5.0 | 10.0 | 0.00 | 0.33 | 0.00 | 66 | 1001.2 |
| 20260505054403 | 57 | 302 | 5.0 | 10.0 | 0.00 | 0.33 | 0.00 | 66 | 1001.2 |
| 20260505054203 | 57 | 304 | 4.0 | 7.0 | 0.00 | 0.33 | 0.00 | 66 | 1001.3 |
| 20260505054024 | 57 | 303 | 4.0 | 7.0 | 0.00 | 0.33 | 0.00 | 66 | 1001.2 |
| 20260505053803 | 57 | 301 | 4.0 | 8.0 | 0.00 | 0.33 | 0.00 | 66 | 1001.0 |
| 20260505053603 | 57 | 301 | 4.0 | 8.0 | 0.00 | 0.33 | 0.00 | 66 | 1001.0 |
| 20260505053403 | 57 | 302 | 4.0 | 8.0 | 0.00 | 0.33 | 0.00 | 66 | 1001.0 |
| 20260505053224 | 57 | 304 | 4.0 | 8.0 | 0.00 | 0.33 | 0.00 | 65 | 1001.0 |
| 20260505053003 | 58 | 305 | 4.0 | 8.0 | 0.00 | 0.33 | 0.00 | 65 | 1001.0 |
| 20260505052803 | 58 | 307 | 4.0 | 8.0 | 0.00 | 0.33 | 0.00 | 65 | 1001.1 |
| 20260505052624 | 58 | 308 | 4.0 | 8.0 | 0.00 | 0.33 | 0.00 | 65 | 1000.9 |
| 20260505052403 | 58 | 306 | 5.0 | 8.0 | 0.00 | 0.33 | 0.00 | 64 | 1001.0 |
| 20260505052203 | 58 | 303 | 5.0 | 9.0 | 0.00 | 0.33 | 0.00 | 64 | 1000.9 |
| 20260505052003 | 58 | 303 | 5.0 | 10.0 | 0.00 | 0.33 | 0.00 | 64 | 1000.9 |
| 20260505051803 | 58 | 301 | 5.0 | 10.0 | 0.00 | 0.33 | 0.00 | 64 | 1000.9 |
| 20260505051624 | 58 | 300 | 6.0 | 10.0 | 0.00 | 0.33 | 0.00 | 64 | 1000.9 |
| 20260505051403 | 58 | 301 | 6.0 | 11.0 | 0.00 | 0.33 | 0.00 | 64 | 1000.8 |
| 20260505051203 | 58 | 301 | 6.0 | 11.0 | 0.00 | 0.33 | 0.00 | 63 | 1000.8 |
| 20260505051003 | 58 | 302 | 6.0 | 11.0 | 0.00 | 0.33 | 0.00 | 63 | 1000.7 |
| 20260505050824 | 58 | 303 | 6.0 | 11.0 | 0.00 | 0.33 | 0.00 | 63 | 1000.8 |
| 20260505050603 | 58 | 303 | 6.0 | 11.0 | 0.00 | 0.33 | 0.00 | 63 | 1001.1 |
| 20260505050403 | 58 | 302 | 6.0 | 10.0 | 0.00 | 0.33 | 0.00 | 63 | 1000.8 |
| 20260505050203 | 59 | 302 | 6.0 | 11.0 | 0.00 | 0.33 | 0.00 | 63 | 1001.1 |
| 20260505041603 | 58 | 304 | 4.0 | 7.0 | 0.00 | 0.33 | 0.00 | 63 | 1000.6 |
| 20260505041424 | 58 | 307 | 4.0 | 7.0 | 0.00 | 0.33 | 0.00 | 64 | 1000.6 |
| 20260505041203 | 58 | 309 | 4.0 | 6.0 | 0.00 | 0.33 | 0.00 | 64 | 1000.7 |
| 20260505041003 | 58 | 311 | 4.0 | 6.0 | 0.01 | 0.33 | 0.00 | 63 | 1000.6 |
| 20260505040824 | 59 | 311 | 4.0 | 6.0 | 0.01 | 0.33 | 0.00 | 63 | 1000.6 |
| 20260505040603 | 59 | 308 | 4.0 | 7.0 | 0.01 | 0.33 | 0.00 | 63 | 1000.5 |
| 20260505040403 | 59 | 306 | 4.0 | 7.0 | 0.01 | 0.33 | 0.00 | 63 | 1000.5 |
| 20260505040224 | 59 | 305 | 4.0 | 7.0 | 0.01 | 0.33 | 0.00 | 63 | 1000.6 |
| 20260505040004 | 59 | 302 | 4.0 | 7.0 | 0.01 | 0.33 | 0.00 | 63 | 1000.5 |
| 20260505035803 | 59 | 302 | 5.0 | 9.0 | 0.01 | 0.33 | 0.33 | 63 | 1000.3 |
| 20260505035603 | 59 | 303 | 5.0 | 9.0 | 0.01 | 0.33 | 0.33 | 63 | 1000.5 |
| 20260505035403 | 59 | 302 | 5.0 | 9.0 | 0.01 | 0.33 | 0.33 | 63 | 1000.2 |
| 20260505035203 | 59 | 301 | 5.0 | 9.0 | 0.01 | 0.33 | 0.33 | 64 | 1000.2 |
| 20260505035003 | 59 | 300 | 5.0 | 9.0 | 0.01 | 0.33 | 0.33 | 64 | 1000.4 |
| 20260505034803 | 58 | 299 | 4.0 | 9.0 | 0.01 | 0.33 | 0.33 | 64 | 1000.4 |
| 20260505034603 | 58 | 298 | 3.0 | 9.0 | 0.01 | 0.33 | 0.33 | 64 | 1000.2 |
| 20260505034403 | 58 | 297 | 3.0 | 7.0 | 0.02 | 0.33 | 0.33 | 65 | 1000.3 |
| 20260505034203 | 58 | 298 | 2.0 | 7.0 | 0.02 | 0.33 | 0.33 | 66 | 1000.4 |
| 20260505034003 | 58 | 298 | 2.0 | 7.0 | 0.03 | 0.33 | 0.33 | 66 | 1000.5 |
| 20260505033803 | 58 | 298 | 2.0 | 6.0 | 0.04 | 0.33 | 0.33 | 66 | 1000.7 |
| 20260505033603 | 58 | 298 | 2.0 | 3.0 | 0.05 | 0.33 | 0.33 | 66 | 1000.6 |
| 20260505033403 | 58 | 299 | 1.0 | 3.0 | 0.06 | 0.33 | 0.33 | 66 | 1000.6 |
| 20260505033203 | 58 | 299 | 1.0 | 3.0 | 0.07 | 0.33 | 0.33 | 66 | 1000.7 |
| 20260505033003 | 58 | 300 | 1.0 | 3.0 | 0.08 | 0.33 | 0.33 | 66 | 1000.6 |
| 20260505032803 | 58 | 301 | 1.0 | 3.0 | 0.09 | 0.33 | 0.33 | 66 | 1000.5 |
| 20260505032603 | 58 | 301 | 1.0 | 3.0 | 0.10 | 0.33 | 0.33 | 66 | 1000.3 |
| 20260505032403 | 58 | 300 | 1.0 | 3.0 | 0.11 | 0.33 | 0.33 | 66 | 1000.4 |
| 20260505032224 | 58 | 298 | 1.0 | 4.0 | 0.12 | 0.33 | 0.33 | 66 | 1000.4 |
| 20260505032003 | 58 | 296 | 0.0 | 4.0 | 0.13 | 0.33 | 0.33 | 66 | 1000.4 |
| 20260505031824 | 58 | 296 | 0.0 | 4.0 | 0.15 | 0.33 | 0.33 | 66 | 1000.5 |
| 20260505031603 | 58 | 294 | 0.0 | 4.0 | 0.15 | 0.33 | 0.33 | 66 | 1000.5 |
| 20260505031403 | 58 | 301 | 1.0 | 4.0 | 0.17 | 0.33 | 0.33 | 66 | 1000.5 |
| 20260505031203 | 58 | 296 | 1.0 | 4.0 | 0.17 | 0.33 | 0.33 | 66 | 1000.6 |
| 20260505031003 | 59 | 297 | 1.0 | 4.0 | 0.18 | 0.32 | 0.32 | 66 | 1000.7 |
| 20260505030824 | 59 | 294 | 1.0 | 4.0 | 0.18 | 0.32 | 0.32 | 66 | 1000.9 |
| 20260505030603 | 59 | 296 | 1.0 | 4.0 | 0.18 | 0.32 | 0.32 | 66 | 1000.9 |
| 20260505030403 | 59 | 288 | 1.0 | 4.0 | 0.18 | 0.32 | 0.32 | 66 | 1001.0 |
| 20260505030203 | 59 | 291 | 1.0 | 7.0 | 0.18 | 0.32 | 0.32 | 66 | 1001.0 |
| 20260505030003 | 59 | 288 | 2.0 | 7.0 | 0.18 | 0.32 | 0.32 | 66 | 1000.9 |
| 20260505025824 | 59 | 289 | 2.0 | 7.0 | 0.18 | 0.32 | 0.32 | 65 | 1000.9 |
| 20260505025603 | 59 | 291 | 3.0 | 7.0 | 0.19 | 0.32 | 0.32 | 65 | 1000.9 |
| 20260505025403 | 59 | 290 | 3.0 | 7.0 | 0.19 | 0.32 | 0.32 | 65 | 1001.0 |
| 20260505025203 | 59 | 290 | 3.0 | 7.0 | 0.19 | 0.32 | 0.32 | 65 | 1001.0 |
| 20260505025003 | 59 | 291 | 4.0 | 8.0 | 0.19 | 0.32 | 0.32 | 66 | 1001.0 |
| 20260505024803 | 59 | 291 | 3.0 | 8.0 | 0.19 | 0.32 | 0.32 | 66 | 1001.0 |
| 20260505024603 | 59 | 290 | 3.0 | 8.0 | 0.19 | 0.32 | 0.32 | 66 | 1000.9 |
| 20260505024403 | 59 | 289 | 3.0 | 8.0 | 0.18 | 0.31 | 0.31 | 66 | 1001.0 |
| 20260505024203 | 60 | 280 | 2.0 | 8.0 | 0.18 | 0.31 | 0.31 | 66 | 1001.2 |
| 20260505024003 | 60 | 277 | 1.0 | 7.0 | 0.17 | 0.30 | 0.30 | 66 | 1000.6 |
| 20260505023803 | 60 | 287 | 2.0 | 7.0 | 0.16 | 0.29 | 0.29 | 66 | 1000.2 |
| 20260505023603 | 60 | 295 | 3.0 | 9.0 | 0.15 | 0.28 | 0.28 | 65 | 1000.4 |
| 20260505023403 | 60 | 302 | 3.0 | 9.0 | 0.14 | 0.27 | 0.27 | 65 | 1000.5 |
| 20260505023203 | 60 | 309 | 4.0 | 9.0 | 0.13 | 0.26 | 0.26 | 65 | 1001.4 |
| 20260505023003 | 61 | 310 | 5.0 | 10.0 | 0.12 | 0.25 | 0.25 | 65 | 1001.6 |
| 20260505022824 | 61 | 310 | 6.0 | 11.0 | 0.11 | 0.24 | 0.24 | 64 | 1001.7 |
| 20260505022603 | 61 | 314 | 6.0 | 13.0 | 0.10 | 0.23 | 0.23 | 64 | 1001.8 |
| 20260505022403 | 61 | 321 | 7.0 | 18.0 | 0.09 | 0.22 | 0.22 | 64 | 1001.9 |
| 20260505022224 | 62 | 322 | 7.0 | 18.0 | 0.08 | 0.21 | 0.21 | 64 | 1002.0 |
| 20260505022003 | 62 | 331 | 7.0 | 18.0 | 0.07 | 0.20 | 0.20 | 63 | 1002.2 |
| 20260505021803 | 63 | 335 | 7.0 | 18.0 | 0.05 | 0.18 | 0.18 | 62 | 1002.3 |
| 20260505021603 | 64 | 336 | 7.0 | 18.0 | 0.05 | 0.18 | 0.18 | 60 | 1002.3 |
| 20260505021403 | 64 | 333 | 6.0 | 16.0 | 0.03 | 0.16 | 0.16 | 59 | 1001.8 |
| 20260505021203 | 64 | 332 | 6.0 | 16.0 | 0.03 | 0.16 | 0.16 | 57 | 1001.9 |
| 20260505021003 | 65 | 325 | 7.0 | 16.0 | 0.01 | 0.14 | 0.14 | 56 | 1001.7 |
| 20260505020803 | 65 | 327 | 7.0 | 16.0 | 0.01 | 0.14 | 0.14 | 55 | 1001.4 |
| 20260505020603 | 66 | 327 | 7.0 | 16.0 | 0.01 | 0.14 | 0.14 | 54 | 1001.1 |
| 20260505020403 | 66 | 327 | 8.0 | 16.0 | 0.01 | 0.14 | 0.14 | 54 | 1001.1 |
| 20260505020203 | 66 | 324 | 9.0 | 15.0 | 0.01 | 0.14 | 0.14 | 54 | 1001.1 |
| 20260505020003 | 66 | 321 | 9.0 | 18.0 | 0.01 | 0.14 | 0.14 | 53 | 1001.1 |
| 20260505015824 | 66 | 319 | 9.0 | 18.0 | 0.01 | 0.14 | 0.14 | 53 | 1001.1 |
| 20260505015603 | 66 | 317 | 8.0 | 18.0 | 0.00 | 0.13 | 0.13 | 53 | 1000.9 |
| 20260505015424 | 67 | 312 | 8.0 | 18.0 | 0.00 | 0.13 | 0.13 | 53 | 1000.9 |
| 20260505015203 | 66 | 312 | 7.0 | 18.0 | 0.00 | 0.13 | 0.13 | 53 | 1000.9 |
| 20260505015003 | 66 | 313 | 6.0 | 17.0 | 0.00 | 0.13 | 0.13 | 53 | 1000.8 |
| 20260505014803 | 65 | 310 | 6.0 | 11.0 | 0.00 | 0.13 | 0.13 | 56 | 1000.7 |
| 20260505014603 | 65 | 309 | 5.0 | 11.0 | 0.00 | 0.13 | 0.13 | 56 | 1000.7 |
| 20260505014424 | 64 | 308 | 4.0 | 11.0 | 0.00 | 0.13 | 0.13 | 56 | 1000.6 |
| 20260505014224 | 64 | 306 | 4.0 | 9.0 | 0.00 | 0.13 | 0.13 | 58 | 1000.5 |
| 20260505014003 | 63 | 304 | 3.0 | 7.0 | 0.00 | 0.13 | 0.13 | 59 | 1000.5 |
| 20260505013803 | 63 | 299 | 2.0 | 4.0 | 0.00 | 0.13 | 0.13 | 61 | 1000.2 |
| 20260505013624 | 63 | 298 | 2.0 | 4.0 | 0.00 | 0.13 | 0.13 | 61 | 1000.1 |
| 20260505013424 | 63 | 298 | 2.0 | 4.0 | 0.01 | 0.13 | 0.13 | 61 | 1000.1 |
| 20260505013203 | 63 | 298 | 1.0 | 4.0 | 0.01 | 0.13 | 0.13 | 62 | 1000.0 |
| 20260505013024 | 63 | 297 | 1.0 | 3.0 | 0.01 | 0.13 | 0.13 | 62 | 999.9 |
| 20260505012803 | 63 | 295 | 0.0 | 2.0 | 0.01 | 0.13 | 0.13 | 63 | 999.8 |
| 20260505012603 | 63 | 0 | 0.0 | 0.0 | 0.01 | 0.13 | 0.13 | 63 | 999.8 |
| 20260505012424 | 63 | 0 | 0.0 | 0.0 | 0.01 | 0.13 | 0.13 | 63 | 999.8 |
| 20260505012203 | 62 | 0 | 0.0 | 0.0 | 0.01 | 0.13 | 0.13 | 63 | 999.7 |
| 20260505012003 | 63 | 0 | 0.0 | 0.0 | 0.01 | 0.13 | 0.13 | 64 | 999.8 |
| 20260505011803 | 63 | 0 | 0.0 | 0.0 | 0.01 | 0.13 | 0.13 | 64 | 999.8 |
| 20260505011603 | 63 | 0 | 0.0 | 0.0 | 0.01 | 0.13 | 0.13 | 64 | 999.7 |
| 20260505011403 | 63 | 0 | 0.0 | 0.0 | 0.01 | 0.13 | 0.13 | 64 | 999.8 |
| 20260505011203 | 63 | 0 | 0.0 | 0.0 | 0.01 | 0.13 | 0.13 | 64 | 999.7 |
| 20260505011024 | 63 | 0 | 0.0 | 0.0 | 0.01 | 0.13 | 0.13 | 64 | 999.7 |
| 20260505010803 | 64 | 0 | 0.0 | 0.0 | 0.01 | 0.13 | 0.13 | 64 | 999.7 |
| 20260505010603 | 64 | 0 | 0.0 | 0.0 | 0.01 | 0.13 | 0.13 | 64 | 999.7 |
| 20260505010403 | 64 | 0 | 0.0 | 0.0 | 0.01 | 0.13 | 0.13 | 63 | 999.6 |
| 20260505010203 | 64 | 0 | 0.0 | 0.0 | 0.01 | 0.13 | 0.13 | 63 | 999.6 |
| 20260505010004 | 65 | 0 | 0.0 | 0.0 | 0.01 | 0.13 | 0.13 | 63 | 999.5 |
| 20260505005803 | 65 | 0 | 0.0 | 0.0 | 0.01 | 0.13 | 0.13 | 63 | 999.6 |
| 20260505005624 | 65 | 0 | 0.0 | 0.0 | 0.01 | 0.13 | 0.13 | 62 | 999.6 |
| 20260505005403 | 65 | 81 | 0.0 | 1.0 | 0.01 | 0.13 | 0.13 | 61 | 999.6 |
| 20260505005203 | 66 | 80 | 0.0 | 1.0 | 0.01 | 0.13 | 0.13 | 61 | 999.7 |
| 20260505005004 | 66 | 80 | 0.0 | 1.0 | 0.01 | 0.13 | 0.13 | 61 | 999.8 |
| 20260505004803 | 66 | 79 | 0.0 | 2.0 | 0.01 | 0.13 | 0.13 | 61 | 999.7 |
| 20260505004603 | 66 | 72 | 0.0 | 2.0 | 0.01 | 0.13 | 0.13 | 59 | 999.8 |
| 20260505004403 | 67 | 2 | 1.0 | 4.0 | 0.01 | 0.13 | 0.13 | 59 | 999.8 |
| 20260505004224 | 67 | 323 | 1.0 | 5.0 | 0.01 | 0.13 | 0.13 | 59 | 999.9 |
| 20260505004003 | 67 | 316 | 3.0 | 8.0 | 0.01 | 0.13 | 0.13 | 57 | 999.9 |
| 20260505003803 | 67 | 309 | 4.0 | 10.0 | 0.01 | 0.13 | 0.13 | 56 | 999.9 |
| 20260505003603 | 67 | 310 | 5.0 | 10.0 | 0.01 | 0.13 | 0.13 | 56 | 1000.1 |
| 20260505003403 | 67 | 311 | 6.0 | 10.0 | 0.00 | 0.12 | 0.12 | 55 | 1000.3 |
| 20260505003203 | 67 | 310 | 6.0 | 10.0 | 0.00 | 0.12 | 0.12 | 54 | 1000.2 |
| 20260505003003 | 67 | 308 | 5.0 | 10.0 | 0.00 | 0.12 | 0.12 | 54 | 1000.1 |
| 20260505002803 | 67 | 309 | 5.0 | 10.0 | 0.00 | 0.12 | 0.12 | 54 | 1000.1 |
| 20260505002603 | 67 | 307 | 5.0 | 9.0 | 0.00 | 0.12 | 0.12 | 54 | 1000.1 |
| 20260505002403 | 66 | 306 | 4.0 | 8.0 | 0.00 | 0.12 | 0.12 | 55 | 999.8 |
| 20260505002203 | 66 | 305 | 4.0 | 7.0 | 0.00 | 0.12 | 0.12 | 56 | 999.8 |
| 20260505002003 | 66 | 305 | 4.0 | 9.0 | 0.00 | 0.12 | 0.12 | 57 | 999.8 |
| 20260505001824 | 66 | 304 | 4.0 | 9.0 | 0.00 | 0.12 | 0.12 | 56 | 999.7 |
| 20260505001603 | 67 | 306 | 5.0 | 9.0 | 0.00 | 0.12 | 0.12 | 56 | 999.7 |
| 20260505001403 | 67 | 305 | 5.0 | 9.0 | 0.00 | 0.12 | 0.12 | 56 | 999.7 |
| 20260505001203 | 67 | 308 | 6.0 | 9.0 | 0.00 | 0.12 | 0.12 | 55 | 999.7 |
| 20260505001003 | 68 | 309 | 6.0 | 10.0 | 0.00 | 0.12 | 0.12 | 55 | 999.7 |
| 20260505000803 | 68 | 310 | 6.0 | 11.0 | 0.00 | 0.12 | 0.12 | 53 | 999.8 |
| 20260505000603 | 68 | 309 | 7.0 | 11.0 | 0.00 | 0.12 | 0.12 | 54 | 999.8 |
| 20260505000405 | 68 | 309 | 7.0 | 11.0 | 0.00 | 0.12 | 0.12 | 53 | 999.7 |
| 20260505000204 | 68 | 306 | 7.0 | 11.0 | 0.00 | 0.12 | 0.12 | 53 | 999.7 |
| 20260505000003 | 68 | 306 | 7.0 | 11.0 | 0.00 | 0.12 | 0.12 | 53 | 999.7 |
| 20260504235824 | 68 | 304 | 7.0 | 10.0 | 0.00 | 0.12 | 0.12 | 55 | 999.6 |
| 20260504235603 | 68 | 304 | 6.0 | 12.0 | 0.00 | 0.12 | 0.12 | 54 | 999.5 |
| 20260504235403 | 68 | 305 | 6.0 | 12.0 | 0.00 | 0.12 | 0.12 | 53 | 999.5 |
| 20260504235203 | 68 | 306 | 5.0 | 12.0 | 0.00 | 0.12 | 0.12 | 54 | 999.5 |
| 20260504235003 | 68 | 305 | 5.0 | 12.0 | 0.00 | 0.12 | 0.12 | 52 | 999.5 |
| 20260504234803 | 68 | 306 | 5.0 | 12.0 | 0.00 | 0.12 | 0.12 | 52 | 999.5 |
| 20260504234603 | 68 | 306 | 5.0 | 8.0 | 0.00 | 0.12 | 0.12 | 53 | 999.5 |
| 20260504234403 | 68 | 306 | 5.0 | 10.0 | 0.00 | 0.12 | 0.12 | 53 | 999.5 |
| 20260504234203 | 68 | 305 | 6.0 | 10.0 | 0.00 | 0.12 | 0.12 | 53 | 999.6 |
| 20260504234003 | 68 | 304 | 6.0 | 12.0 | 0.00 | 0.12 | 0.12 | 54 | 999.7 |
| 20260504233803 | 68 | 305 | 7.0 | 12.0 | 0.00 | 0.12 | 0.12 | 53 | 999.6 |
| 20260504233624 | 68 | 305 | 7.0 | 12.0 | 0.00 | 0.12 | 0.12 | 53 | 999.5 |
| 20260504233403 | 68 | 307 | 8.0 | 15.0 | 0.00 | 0.12 | 0.12 | 52 | 999.5 |
| 20260504233203 | 68 | 307 | 9.0 | 16.0 | 0.00 | 0.12 | 0.12 | 53 | 999.6 |
| 20260504233003 | 69 | 308 | 9.0 | 16.0 | 0.00 | 0.12 | 0.12 | 52 | 999.5 |
| 20260504232803 | 69 | 308 | 9.0 | 16.0 | 0.00 | 0.12 | 0.12 | 53 | 999.6 |
| 20260504232624 | 69 | 310 | 9.0 | 16.0 | 0.00 | 0.12 | 0.12 | 51 | 999.7 |
| 20260504232403 | 69 | 309 | 7.0 | 16.0 | 0.00 | 0.12 | 0.12 | 49 | 999.7 |
| 20260504232203 | 69 | 309 | 6.0 | 15.0 | 0.00 | 0.12 | 0.12 | 51 | 999.5 |
| 20260504232024 | 69 | 311 | 6.0 | 12.0 | 0.00 | 0.12 | 0.12 | 51 | 999.4 |
| 20260504231803 | 70 | 314 | 6.0 | 12.0 | 0.00 | 0.12 | 0.12 | 51 | 999.4 |
| 20260504231624 | 69 | 309 | 6.0 | 12.0 | 0.00 | 0.12 | 0.12 | 49 | 999.4 |
| 20260504231403 | 69 | 308 | 6.0 | 12.0 | 0.03 | 0.12 | 0.12 | 49 | 999.4 |
| 20260504231224 | 69 | 309 | 6.0 | 12.0 | 0.08 | 0.12 | 0.12 | 49 | 999.4 |
| 20260504231003 | 69 | 307 | 6.0 | 11.0 | 0.12 | 0.12 | 0.12 | 49 | 999.4 |
| 20260504230803 | 70 | 307 | 6.0 | 11.0 | 0.12 | 0.12 | 0.12 | 49 | 999.4 |